St. Johnsbury, VT

9:46 PM EDT on October 22, 2017 (GMT -0400)
St. Johnsbury

Weather History for K1V4 - January, 2014

Change the Weather History Date:

Monday, January 27, 2014

  Actual Average Record
Temperature  
Mean Temperature 17 °F 16 °F  
Max Temperature 30 °F 27 °F 56 °F (1974)
Min Temperature 4 °F 6 °F -30 °F (1994)
Degree Days  
Heating Degree Days 48 49  
Month to date heating degree days 1116 1306  
Since 1 July heating degree days 4271 4259  
Cooling Degree Days 0 0  
Month to date cooling degree days 0  
Year to date cooling degree days 0  
Moisture  
Dew Point 5 °F    
Average Humidity 62    
Maximum Humidity 92    
Minimum Humidity 31    
Precipitation  
Precipitation 0.04 in 0.08 in 1.36 in (1986)
Month to date precipitation 1.94 2.19  
Year to date precipitation 1.94 2.19  
Sea Level Pressure  
Sea Level Pressure 29.68 in    
Wind  
Wind Speed - (North)    
Max Wind Speed -    
Max Gust Speed -    
T = Trace of Precipitation, MM = Missing Value Source: NWS Daily Summary

Daily Weather History Graph

Daily Weather History Graph

Search for Another Location

Airport or City:

Trip Planner

Search our weather history database for the weather conditions in past years. The results will help you decide how hot, cold, wet, or windy it might be!

Date:

Astronomy

Jan. 27, 2014 Rise Set
Actual Time 7:11 AM EST 4:50 PM EST
Civil Twilight 6:40 AM EST 5:21 PM EST
Nautical Twilight 6:05 AM EST 5:56 PM EST
Astronomical Twilight 5:31 AM EST 6:31 PM EST
Moon 3:51 AM EST (1/27) 1:31 PM EST (1/27)
Length of Visible Light 10h 41m
Length of Day
9h 38m
Waning Crescent, 15% of the Moon is Illuminated
Jan 27
Waning Crescent
Jan 30
New
Feb 6
First Quarter
Feb 14
Full
Feb 22
Last Quarter

Hourly Weather History & Observations

Time (EST) Temp. Dew Point Humidity Pressure Visibility Wind Dir Wind Speed Gust Speed Precip Events Conditions
12:54 AM 12.9 °F 1.0 °F 59% 29.74 in - North - - N/A   Unknown
1:54 AM 14.0 °F 3.0 °F 62% 29.70 in - North - - N/A   Unknown
2:54 AM 15.1 °F 5.0 °F 64% 29.68 in - North - - N/A   Unknown
3:54 AM 16.0 °F 6.1 °F 65% 29.64 in - North - - N/A   Unknown
4:54 AM 18.0 °F 7.0 °F 62% 29.60 in - North - - N/A   Unknown
5:54 AM 18.0 °F 7.0 °F 62% 29.56 in - North - - N/A   Unknown
6:54 AM 19.0 °F 8.1 °F 62% 29.50 in - North - - N/A   Unknown
7:54 AM 21.9 °F 14.0 °F 72% 29.45 in - North - - N/A   Unknown
8:54 AM 25.0 °F 17.1 °F 72% 29.42 in - North - - N/A   Unknown
9:54 AM 28.0 °F 18.0 °F 66% 29.42 in - North - - N/A   Unknown
10:54 AM 28.0 °F 24.1 °F 85% 29.47 in - North - - 0.01 in   Unknown
11:54 AM 28.9 °F 26.1 °F 89% 29.49 in - North - - 0.02 in   Unknown
12:54 PM 28.0 °F 15.1 °F 58% 29.56 in - North - - 0.01 in   Unknown
1:54 PM 24.1 °F 14.0 °F 65% 29.61 in - North - - N/A   Unknown
2:54 PM 21.9 °F 3.9 °F 46% 29.66 in - North - - N/A   Unknown
3:54 PM 21.0 °F -5.1 °F 32% 29.70 in - North - - N/A   Unknown
4:54 PM 19.0 °F -6.0 °F 33% 29.75 in - North - - N/A   Unknown
5:54 PM 17.1 °F -6.0 °F 36% 29.81 in - North - - N/A   Unknown
6:54 PM 15.1 °F -5.1 °F 41% 29.86 in - North - - N/A   Unknown
7:54 PM 14.0 °F -5.1 °F 43% 29.88 in - North - - N/A   Unknown
8:54 PM 12.0 °F -4.0 °F 49% 29.90 in - North - - N/A   Unknown
9:54 PM 9.0 °F -6.0 °F 51% 29.93 in - North - - N/A   Unknown
10:54 PM 8.1 °F -7.1 °F 50% 29.95 in - North - - N/A   Unknown
11:54 PM 3.9 °F -5.1 °F 66% 29.97 in - North - - N/A   Unknown